| time (UTC) | temp C | wind direction | speed KPH | gust KPH | rain 1hr cm | rain 24hr cm | rain mn cm | humidity % | barometer mb |
| 20260505093044 | 7 | 314 | 3.2 | 6.4 | 0.00 | 0.00 | 0.00 | 76 | 1009.4 |
| 20260505091543 | 7 | 302 | 3.2 | 6.4 | 0.00 | 0.00 | 0.00 | 76 | 1009.6 |
| 20260505090046 | 7 | 305 | 1.6 | 3.2 | 0.00 | 0.00 | 0.00 | 80 | 1009.7 |
| 20260505084551 | 7 | 304 | 0.0 | 3.2 | 0.00 | 0.00 | 0.00 | 81 | 1009.8 |
| 20260505083053 | 7 | 260 | 0.0 | 3.2 | 0.00 | 0.00 | 0.00 | 72 | 1009.8 |
| 20260505081539 | 7 | 212 | 1.6 | 4.8 | 0.00 | 0.00 | 0.00 | 77 | 1010.2 |
| 20260505080045 | 7 | 207 | 1.6 | 4.8 | 0.00 | 0.00 | 0.00 | 78 | 1010.1 |
| 20260505074534 | 8 | 314 | 0.0 | 3.2 | 0.00 | 0.00 | 0.00 | 71 | 1009.5 |
| 20260505073035 | 8 | 329 | 1.6 | 6.4 | 0.00 | 0.00 | 0.00 | 69 | 1009.3 |
| 20260505071543 | 8 | 311 | 4.8 | 9.7 | 0.00 | 0.00 | 0.00 | 69 | 1009.2 |
| 20260505070028 | 8 | 300 | 4.8 | 11.3 | 0.00 | 0.00 | 0.00 | 69 | 1009.1 |
| 20260505064528 | 8 | 316 | 8.0 | 14.5 | 0.00 | 0.00 | 0.00 | 66 | 1008.9 |
| 20260505063023 | 8 | 337 | 8.0 | 16.1 | 0.00 | 0.00 | 0.00 | 69 | 1008.3 |
| 20260505061520 | 8 | 337 | 8.0 | 16.1 | 0.00 | 0.00 | 0.00 | 73 | 1008.0 |
| 20260505060032 | 8 | 339 | 9.7 | 14.5 | 0.00 | 0.00 | 0.00 | 76 | 1007.7 |
| 20260505054517 | 8 | 333 | 8.0 | 14.5 | 0.00 | 0.00 | 0.00 | 76 | 1007.9 |
| 20260505053017 | 9 | 336 | 11.3 | 27.4 | 0.00 | 0.00 | 0.00 | 76 | 1007.6 |
| 20260505051512 | 10 | 15 | 20.9 | 30.6 | 0.00 | 0.00 | 0.00 | 73 | 1007.0 |
| 20260505041505 | 12 | 5 | 20.9 | 37.0 | 0.00 | 0.00 | 0.00 | 58 | 1006.9 |
| 20260505040004 | 13 | 330 | 30.6 | 43.5 | 0.00 | 0.00 | 0.00 | 51 | 1006.7 |
| 20260505034503 | 13 | 359 | 27.4 | 38.6 | 0.00 | 0.00 | 0.00 | 47 | 1006.5 |
| 20260505033002 | 14 | 340 | 25.7 | 35.4 | 0.00 | 0.00 | 0.00 | 46 | 1006.7 |
| 20260505031502 | 14 | 359 | 24.1 | 30.6 | 0.00 | 0.00 | 0.00 | 46 | 1006.8 |
| 20260505024559 | 15 | 312 | 24.1 | 43.5 | 0.00 | 0.00 | 0.00 | 45 | 1006.0 |
| 20260505023058 | 16 | 332 | 32.2 | 49.9 | 0.00 | 0.00 | 0.00 | 42 | 1005.4 |
| 20260505021557 | 17 | 359 | 24.1 | 37.0 | 0.00 | 0.00 | 0.00 | 37 | 1005.3 |
| 20260505020157 | 17 | 5 | 22.5 | 33.8 | 0.00 | 0.00 | 0.00 | 36 | 1005.4 |
| 20260505014605 | 17 | 338 | 19.3 | 30.6 | 0.00 | 0.00 | 0.00 | 35 | 1005.1 |
| 20260505013055 | 18 | 6 | 19.3 | 33.8 | 0.00 | 0.00 | 0.00 | 34 | 1004.3 |
| 20260505011555 | 18 | 351 | 20.9 | 33.8 | 0.00 | 0.00 | 0.00 | 33 | 1004.0 |
| 20260505010056 | 19 | 354 | 27.4 | 35.4 | 0.00 | 0.00 | 0.00 | 32 | 1003.7 |
| 20260505004557 | 20 | 336 | 25.7 | 33.8 | 0.00 | 0.00 | 0.00 | 31 | 1003.3 |
| 20260505003054 | 20 | 338 | 24.1 | 38.6 | 0.00 | 0.00 | 0.00 | 30 | 1003.0 |
| 20260505001553 | 20 | 349 | 29.0 | 41.8 | 0.00 | 0.00 | 0.00 | 29 | 1002.7 |
| 20260505000056 | 21 | 347 | 32.2 | 43.5 | 0.00 | 0.00 | 0.00 | 29 | 1002.1 |
| 20260504234552 | 21 | 355 | 24.1 | 40.2 | 0.00 | 0.00 | 0.00 | 29 | 1002.0 |
| 20260504233052 | 22 | 345 | 32.2 | 45.1 | 0.00 | 0.00 | 0.00 | 29 | 1001.6 |
| 20260504231553 | 22 | 334 | 27.4 | 41.8 | 0.00 | 0.00 | 0.00 | 28 | 1001.1 |
| 20260504230052 | 22 | 354 | 30.6 | 41.8 | 0.00 | 0.00 | 0.00 | 28 | 1000.9 |
| 20260504224549 | 23 | 4 | 30.6 | 41.8 | 0.00 | 0.00 | 0.00 | 27 | 1000.9 |
| 20260504223050 | 23 | 356 | 29.0 | 40.2 | 0.00 | 0.00 | 0.00 | 26 | 1000.8 |
| 20260504221549 | 24 | 11 | 30.6 | 41.8 | 0.00 | 0.00 | 0.00 | 26 | 1000.8 |
| 20260504220048 | 24 | 350 | 30.6 | 41.8 | 0.00 | 0.00 | 0.00 | 26 | 1000.7 |
| 20260504214555 | 25 | 356 | 27.4 | 37.0 | 0.00 | 0.00 | 0.00 | 26 | 1000.6 |
| 20260504213048 | 25 | 342 | 24.1 | 37.0 | 0.00 | 0.00 | 0.00 | 25 | 1000.6 |
| 20260504211547 | 26 | 11 | 24.1 | 35.4 | 0.00 | 0.00 | 0.00 | 24 | 1000.7 |
| 20260504210058 | 26 | 7 | 25.7 | 40.2 | 0.00 | 0.00 | 0.00 | 24 | 1000.7 |
| 20260504204603 | 26 | 336 | 32.2 | 43.5 | 0.00 | 0.00 | 0.00 | 26 | 1000.7 |
| 20260504203059 | 26 | 329 | 29.0 | 37.0 | 0.00 | 0.00 | 0.00 | 26 | 1000.6 |
| 20260504201543 | 26 | 338 | 22.5 | 29.0 | 0.00 | 0.00 | 0.00 | 23 | 1001.0 |
| 20260504200043 | 28 | 290 | 6.4 | 20.9 | 0.00 | 0.00 | 0.00 | 19 | 1000.9 |
| 20260504194540 | 28 | 16 | 8.0 | 12.9 | 0.00 | 0.00 | 0.00 | 16 | 1001.1 |
| 20260504193038 | 27 | 91 | 6.4 | 14.5 | 0.00 | 0.00 | 0.00 | 20 | 1001.1 |
| 20260504191537 | 27 | 40 | 11.3 | 19.3 | 0.00 | 0.00 | 0.00 | 19 | 1001.3 |
| 20260504190035 | 27 | 39 | 9.7 | 20.9 | 0.00 | 0.00 | 0.00 | 19 | 1001.1 |
| 20260504184533 | 27 | 337 | 4.8 | 12.9 | 0.00 | 0.00 | 0.00 | 19 | 1001.7 |
| 20260504183031 | 26 | 86 | 3.2 | 16.1 | 0.00 | 0.00 | 0.00 | 18 | 1001.9 |
| 20260504181529 | 26 | 349 | 11.3 | 19.3 | 0.00 | 0.00 | 0.00 | 19 | 1001.9 |
| 20260504180028 | 26 | 310 | 4.8 | 14.5 | 0.00 | 0.00 | 0.00 | 22 | 1002.1 |
| 20260504174527 | 25 | 347 | 14.5 | 24.1 | 0.00 | 0.00 | 0.00 | 20 | 1002.2 |
| 20260504173024 | 26 | 360 | 6.4 | 19.3 | 0.00 | 0.00 | 0.00 | 22 | 1002.3 |
| 20260504171522 | 25 | 23 | 6.4 | 11.3 | 0.00 | 0.00 | 0.00 | 22 | 1002.3 |